FENGYUN 1C DEB *, 47009

Orbit data source: Space-Track

FENGYUN 1C DEB *, 47009 is space debris in SSO originally from a launch on Mon, 10 May 1999 UTC launched from the Taiyaun Space Center, China (TSC). Fengyun 1C debris stems from the Chinese weather satellite Fengyun-1C, which was intentionally destroyed by a Chinese anti-satellite missile in 2007. This event dramatically increased the amount of space debris, with thousands of trackable fragments posing hazards to satellites and human spaceflight. The Fengyun 1C debris cloud has become a focal point in discussions about space sustainability and the need for international regulations to prevent the creation of new debris.

Loading next visibility...
Identifier
47009, 1999-025FAK
Orbit
SSO
Country
Flag of CNCN / PRC
Related business
Manufacturer
Unknown
Mission
Spacecraft
Bus & Motor
Unknown
Mass
Unknown
Launch date (UTC)
1999-05-10 (27 years ago)
Launch vehicle
Unknown
Launch site
Taiyaun Space Center, China (TSC)
Object type
Payload
Rocket body
Debris
Shape & HBR
Unknown shape, 0.1 m
Radar Cross Section
Small (<0.1 m²)

Expand to show TLE details & history
Last TLE update: 1 day ago

TLE from 1 day ago
0 FENGYUN 1C DEB *
1 47009U 99025FAK 26143.65963360  .00000142  00000-0  24084-3 0  9997
2 47009  98.9609 113.3104 0351832 215.6306 142.0872 13.37401904609732
Epoch: 2026-05-23T15:49Z
TLE epoch observation values (Epoch: 2026-05-23T15:49:52.343Z)
Latitude
0.00001°
Longitude
-5.43065°
Altitude
1,333.269 km
Speed
7.089 km/s
True Right ascension
07h 33m 14s
True Declination
0° 00' 00"
Sunlit
Object was in daylight at epoch
Visualization orbit readout
Latitude
Unknown
Longitude
Unknown
Altitude
Unknown
Speed
Unknown
Apparent Right ascension
Unknown
Apparent Declination
Unknown
Sunlit
N/A
Visualization observer readout
Local Sidereal Time
11:04:34
Azimuth
Unknown
Elevation
Unknown
Doppler factor
Unknown
Orbital elements
Apogee altitude
1,379.926 km
Perigee altitude
852.573 km
Semi-major axis
7,494.387 km
Eccentricity
0.03518
Inclination
98.9609°
RAAN
113.3104°
Arg. of periapsis
215.6306°
True anomaly
144.48065°
Mean anomaly
142.0872°
Eccentric anomaly
143.29214°
Mean motion
3.34533 °/min
Orbital period
107.61 mins
BSTAR
0.00024084
Loading maneuver chart data...
Computing Atmospheric mass density...

Documentation

Showing up to 5 results
|